Aérodrome :
LOGIN :

S'inscrire | Disclaimer

   EN    FR    IT 

 










Légende :    VFR   VFR Marginal   IFR   IFR Intensif   IFR Très Intensif
Visi : 
Plafond : 
>= 8 km
>= 3000ft
5 à 8 km
1000 à 3000 ft
1500m à 5 km
500 à 1000 ft
800 à 1500m
200 à 500 ft
< 800m
< 200 ft
Symboles :   Orages  Brouillard  Fortes neiges  Fortes précipitations  Vent > 20 kt
SIGMETs :   Divers  Orages  Givrage  Turbulence  Onde Orograph.  Cendres Volcan.






- Altitude de l'aérodrome : 219 ft
- Code IATA : DNR


LFRD - Dinard

DERNIER METAR :
  • 281100Z AUTO 05010KT 360V090 CAVOK 21/11 Q1029

METARs EXPIRÉS :
  • 281030Z AUTO 05012KT 020V080 CAVOK 21/08 Q1030
  • 281000Z AUTO 05012KT 030V090 CAVOK 21/09 Q1030
  • 280930Z AUTO 07011KT 020V110 CAVOK 21/11 Q1030
  • 280900Z AUTO 07012KT CAVOK 20/10 Q1030
  • 280830Z AUTO 07010KT 030V090 CAVOK 19/11 Q1031
  • 280800Z AUTO 07010KT CAVOK 19/11 Q1031

Prévision TAF périmée.
ATIS : +33 2 99 16 81 50



MET'MAP, la Météo Aéronautique d'un coup d'oeil ! - Copyright ORBIFLY Décembre 2007 - Disclaimer

ORBIFLY MET'MAP TEAM :

Programmation & Développement : Alexandra Zaïnal
Sur une idée originale de : Baudouin d'Aumeries
Assistance à la programmation : Marc-Olivier Méhu
Soutien technique & logistique : Manuel Goepfert

Contact : metmap@orbifly.com




SOURCES & CREDITS :

   NOAA